User: anonymous   Login
Location: Bretagne
(43.8474°N, 0.4650°W)
Time: 11:23:23
(UTC+00:00)
Language:

Landsat 7 - Orbit

View from above orbital plane
View from above orbital plane
View from above satellite
View from above satellite

Ground track
Ground track

The orbit is defined by the following mean orbital elements,

1 25682U          26064.21060365 +.00000000 +00000-0 +13743-3 0 00008
2 25682  97.8607  72.6096 0001743  85.0336 338.7845 14.63814551    08
Epoch (UTC): 05 March 2026 05:03:16
Eccentricity: 0.0001743
inclination: 97.8607°
perigee height: 680 km
apogee height: 682 km
right ascension of ascending node: 72.6096°
argument of perigee: 85.0336°
revolutions per day: 14.63814551
mean anomaly at epoch: 338.7845°

The dashed part of the orbit path shows where the satellite is in the earth's shadow,  

DLR